{"data":{"norad_id":57346,"intl_designator":"2023-099U","name":"STARLINK-6359","alt_names":[],"object_type":"PAYLOAD","status":"ACTIVE","operator":null,"country":"US","launch_date":"2023-07-16","launch_site_code":"AFETR","launch_vehicle":null,"mission":null,"orbit_class":"UNKNOWN","rcs_meters":null,"size_class":null,"mass_kg":null,"dimensions":null,"purposes":["comms"],"wikipedia_slug":null,"has_3d_model":false,"image_url":null,"decayed_at":null,"tle_current":{"epoch":"2026-05-25T03:12:00.497376Z","epoch_age_seconds":63496,"freshness":"FRESH","line1":"1 57346U 23099U   26145.13333909  .00000571  00000+0  30281-4 0  9997","line2":"2 57346  43.0004 177.6096 0001263 281.4154  78.6556 15.27575447157806","mean_motion":15.27575447,"eccentricity":0.0001263,"inclination_deg":43.0004,"raan_deg":177.6096,"arg_perigee_deg":281.4154,"mean_anomaly_deg":78.6556,"bstar":3.0281e-5,"rev_number":15780,"period_min":94.267029679484,"perigee_km":482.19615986763,"apogee_km":483.92929891927,"semimajor_km":6861.1997293934,"source":"CELESTRAK","updated_at":"2026-05-25T13:38:18.289390Z"}}}